Time,TemperatureF,DewpointF,PressureIn,WindDirection,WindDirectionDegrees,WindSpeedMPH,WindSpeedGustMPH,Humidity,HourlyPrecipIn,Conditions,Clouds,dailyrainin,SoftwareType,DateUTC
2013-05-14 00:02:00,58.5,49.8,29.92,SW,229,3.0,4.0,73,0.00,,,0.00,meteohub,2013-05-14 07:02:00,
2013-05-14 00:07:00,57.9,49.6,29.91,SW,229,4.0,4.0,74,0.00,,,0.00,meteohub,2013-05-14 07:07:00,
2013-05-14 00:12:00,57.7,49.5,29.91,SW,229,3.0,4.0,74,0.00,,,0.00,meteohub,2013-05-14 07:12:00,
2013-05-14 00:17:00,57.6,49.6,29.91,SW,229,3.0,5.0,75,0.00,,,0.00,meteohub,2013-05-14 07:17:00,
2013-05-14 00:22:00,57.6,49.6,29.91,SW,229,3.0,5.0,75,0.00,,,0.00,meteohub,2013-05-14 07:22:00,
2013-05-14 00:27:00,57.6,49.6,29.91,NE,34,5.0,5.0,75,0.00,,,0.00,meteohub,2013-05-14 07:27:00,
2013-05-14 00:32:00,58.5,50.5,29.91,NE,44,2.0,5.0,75,0.00,,,0.00,meteohub,2013-05-14 07:32:00,
2013-05-14 00:37:00,59.4,50.7,29.91,NE,44,1.0,5.0,73,0.00,,,0.00,meteohub,2013-05-14 07:37:00,
2013-05-14 00:42:00,59.7,51.1,29.91,South,188,1.0,5.0,73,0.00,,,0.00,meteohub,2013-05-14 07:42:00,
2013-05-14 00:47:00,60.6,51.1,29.91,South,188,0.0,4.0,71,0.00,,,0.00,meteohub,2013-05-14 07:47:00,
2013-05-14 00:52:00,61.0,50.7,29.91,South,188,0.0,4.0,69,0.00,,,0.00,meteohub,2013-05-14 07:52:00,
2013-05-14 00:57:00,61.0,50.7,29.92,South,188,0.0,3.0,69,0.00,,,0.00,meteohub,2013-05-14 07:57:00,
2013-05-14 01:02:00,60.6,50.7,29.92,South,188,0.0,3.0,70,0.00,,,0.00,meteohub,2013-05-14 08:02:00,
2013-05-14 01:07:00,60.3,50.4,29.91,South,188,0.0,3.0,70,0.00,,,0.00,meteohub,2013-05-14 08:07:00,
2013-05-14 01:12:00,59.7,50.4,29.91,SSE,148,2.0,3.0,71,0.00,,,0.00,meteohub,2013-05-14 08:12:00,
2013-05-14 01:17:00,59.4,50.4,29.91,SSE,148,2.0,3.0,72,0.00,,,0.00,meteohub,2013-05-14 08:17:00,
2013-05-14 01:22:00,59.0,50.0,29.91,SSE,148,2.0,3.0,72,0.00,,,0.00,meteohub,2013-05-14 08:22:00,
2013-05-14 01:27:00,58.5,49.8,29.90,SE,145,3.0,3.0,73,0.00,,,0.00,meteohub,2013-05-14 08:27:00,
2013-05-14 01:32:00,58.6,50.4,29.90,East,88,3.0,4.0,74,0.00,,,0.00,meteohub,2013-05-14 08:32:00,
2013-05-14 01:37:00,60.4,51.1,29.90,NE,51,3.0,6.0,71,0.00,,,0.00,meteohub,2013-05-14 08:37:00,
2013-05-14 01:42:00,61.9,51.3,29.90,NE,53,1.0,6.0,68,0.00,,,0.00,meteohub,2013-05-14 08:42:00,
2013-05-14 01:47:00,62.4,50.9,29.90,NE,34,0.0,6.0,66,0.00,,,0.00,meteohub,2013-05-14 08:47:00,
2013-05-14 01:52:00,63.0,51.1,29.90,NE,38,1.0,3.0,65,0.00,,,0.00,meteohub,2013-05-14 08:52:00,
2013-05-14 01:57:00,63.7,51.3,29.90,NE,39,0.0,3.0,64,0.00,,,0.00,meteohub,2013-05-14 08:57:00,
2013-05-14 02:02:00,63.7,50.9,29.90,NE,52,0.0,3.0,63,0.00,,,0.00,meteohub,2013-05-14 09:02:00,
2013-05-14 02:07:00,63.3,50.5,29.90,NE,52,0.0,3.0,63,0.00,,,0.00,meteohub,2013-05-14 09:07:00,
2013-05-14 02:12:00,62.8,50.0,29.90,SE,126,2.0,3.0,63,0.00,,,0.00,meteohub,2013-05-14 09:12:00,
2013-05-14 02:17:00,62.1,49.3,29.90,SSE,147,0.0,3.0,63,0.00,,,0.00,meteohub,2013-05-14 09:17:00,
2013-05-14 02:22:00,61.7,48.9,29.89,SSE,147,0.0,3.0,63,0.00,,,0.00,meteohub,2013-05-14 09:22:00,
2013-05-14 02:27:00,61.5,49.3,29.89,SSE,147,0.0,3.0,64,0.00,,,0.00,meteohub,2013-05-14 09:27:00,
2013-05-14 02:32:00,61.3,49.1,29.89,SSE,147,0.0,3.0,64,0.00,,,0.00,meteohub,2013-05-14 09:32:00,
2013-05-14 02:37:00,61.2,49.3,29.89,SSE,147,1.0,2.0,65,0.00,,,0.00,meteohub,2013-05-14 09:37:00,
2013-05-14 02:42:00,60.6,48.4,29.89,SSE,147,0.0,2.0,64,0.00,,,0.00,meteohub,2013-05-14 09:42:00,
2013-05-14 02:47:00,60.3,48.4,29.89,SSE,147,0.0,2.0,65,0.00,,,0.00,meteohub,2013-05-14 09:47:00,
2013-05-14 02:52:00,60.1,48.2,29.89,SSE,147,0.0,1.0,65,0.00,,,0.00,meteohub,2013-05-14 09:52:00,
2013-05-14 02:56:00,59.9,48.0,29.88,SSE,147,0.0,0.0,65,0.00,,,0.00,meteohub,2013-05-14 09:56:00,
2013-05-14 03:01:00,59.7,48.4,29.88,SSE,147,0.0,0.0,66,0.00,,,0.00,meteohub,2013-05-14 10:01:00,
2013-05-14 03:06:00,59.4,48.0,29.88,SSE,147,0.0,0.0,66,0.00,,,0.00,meteohub,2013-05-14 10:06:00,
2013-05-14 03:11:00,58.8,47.8,29.88,SSE,147,0.0,0.0,67,0.00,,,0.00,meteohub,2013-05-14 10:11:00,
2013-05-14 03:16:00,58.5,48.0,29.88,SSE,147,0.0,0.0,68,0.00,,,0.00,meteohub,2013-05-14 10:16:00,
2013-05-14 03:22:00,57.9,47.8,29.88,SSE,147,0.0,0.0,69,0.00,,,0.00,meteohub,2013-05-14 10:22:00,
2013-05-14 03:27:00,57.7,47.7,29.88,SSE,147,0.0,0.0,69,0.00,,,0.00,meteohub,2013-05-14 10:27:00,
2013-05-14 03:32:00,57.6,47.8,29.88,SSE,147,0.0,0.0,70,0.00,,,0.00,meteohub,2013-05-14 10:32:00,
2013-05-14 03:37:00,57.2,47.8,29.88,SSE,147,0.0,0.0,71,0.00,,,0.00,meteohub,2013-05-14 10:37:00,
2013-05-14 03:42:00,57.0,48.0,29.88,SSE,147,0.0,0.0,72,0.00,,,0.00,meteohub,2013-05-14 10:42:00,
2013-05-14 03:47:00,56.7,48.4,29.88,SSE,147,0.0,1.0,74,0.00,,,0.00,meteohub,2013-05-14 10:47:00,
2013-05-14 03:52:00,56.5,48.7,29.88,SSE,147,0.0,1.0,75,0.00,,,0.00,meteohub,2013-05-14 10:52:00,
2013-05-14 03:57:00,56.1,48.0,29.88,SSE,147,0.0,1.0,74,0.00,,,0.00,meteohub,2013-05-14 10:57:00,
2013-05-14 04:02:00,55.9,47.8,29.88,SSE,147,0.0,0.0,74,0.00,,,0.00,meteohub,2013-05-14 11:02:00,
2013-05-14 04:07:00,55.8,47.7,29.88,SSE,147,0.0,0.0,74,0.00,,,0.00,meteohub,2013-05-14 11:07:00,
2013-05-14 04:12:00,55.6,47.5,29.88,SSE,147,0.0,0.0,74,0.00,,,0.00,meteohub,2013-05-14 11:12:00,
2013-05-14 04:17:00,55.2,47.1,29.88,SSE,147,0.0,0.0,74,0.00,,,0.00,meteohub,2013-05-14 11:17:00,
2013-05-14 04:22:00,55.2,47.5,29.88,SSE,147,2.0,3.0,75,0.00,,,0.00,meteohub,2013-05-14 11:22:00,
2013-05-14 04:27:00,55.6,47.8,29.88,SSE,147,1.0,3.0,75,0.00,,,0.00,meteohub,2013-05-14 11:27:00,
2013-05-14 04:32:00,55.8,47.7,29.88,SSE,147,0.0,3.0,74,0.00,,,0.00,meteohub,2013-05-14 11:32:00,
2013-05-14 04:37:00,55.9,47.5,29.88,SSE,147,0.0,3.0,73,0.00,,,0.00,meteohub,2013-05-14 11:37:00,
2013-05-14 04:42:00,55.8,47.7,29.87,SE,146,2.0,2.0,74,0.00,,,0.00,meteohub,2013-05-14 11:42:00,
2013-05-14 04:47:00,55.2,47.1,29.87,SE,146,1.0,3.0,74,0.00,,,0.00,meteohub,2013-05-14 11:47:00,
2013-05-14 04:52:00,55.0,47.3,29.87,SE,146,0.0,3.0,75,0.00,,,0.00,meteohub,2013-05-14 11:52:00,
2013-05-14 04:57:00,54.9,47.5,29.87,SE,146,0.0,3.0,76,0.00,,,0.00,meteohub,2013-05-14 11:57:00,
2013-05-14 05:02:00,54.7,47.7,29.87,SE,146,0.0,3.0,77,0.00,,,0.00,meteohub,2013-05-14 12:02:00,
2013-05-14 05:07:00,54.5,47.5,29.87,SE,146,0.0,2.0,77,0.00,,,0.00,meteohub,2013-05-14 12:07:00,
2013-05-14 05:12:00,54.5,48.2,29.87,SSW,192,5.0,5.0,79,0.00,,,0.00,meteohub,2013-05-14 12:12:00,
2013-05-14 05:17:00,54.9,48.2,29.87,SSW,205,3.0,6.0,78,0.00,,,0.00,meteohub,2013-05-14 12:17:00,
2013-05-14 05:22:00,55.0,47.7,29.87,SSW,205,1.0,6.0,76,0.00,,,0.00,meteohub,2013-05-14 12:22:00,
2013-05-14 05:27:00,55.0,47.7,29.87,SSW,205,1.0,6.0,76,0.00,,,0.00,meteohub,2013-05-14 12:27:00,
2013-05-14 05:32:00,55.0,47.3,29.87,SSW,205,2.0,4.0,75,0.00,,,0.00,meteohub,2013-05-14 12:32:00,
2013-05-14 05:37:00,55.0,47.3,29.88,SSW,205,3.0,3.0,75,0.00,,,0.00,meteohub,2013-05-14 12:37:00,
2013-05-14 05:42:00,54.9,47.1,29.88,SSW,205,2.0,4.0,75,0.00,,,0.00,meteohub,2013-05-14 12:42:00,
2013-05-14 05:47:00,54.9,47.5,29.88,SSW,205,2.0,4.0,76,0.00,,,0.00,meteohub,2013-05-14 12:47:00,
2013-05-14 05:52:00,54.7,47.3,29.88,SSW,205,1.0,4.0,76,0.00,,,0.00,meteohub,2013-05-14 12:52:00,
2013-05-14 05:57:00,54.7,47.3,29.88,SSW,205,4.0,4.0,76,0.00,,,0.00,meteohub,2013-05-14 12:57:00,
2013-05-14 06:02:00,54.3,47.3,29.89,SSW,205,1.0,7.0,77,0.00,,,0.00,meteohub,2013-05-14 13:02:00,
2013-05-14 06:07:00,54.3,47.3,29.89,SSW,205,1.0,7.0,77,0.00,,,0.00,meteohub,2013-05-14 13:07:00,
2013-05-14 06:12:00,54.1,47.1,29.90,SSW,205,1.0,7.0,77,0.00,,,0.00,meteohub,2013-05-14 13:12:00,
2013-05-14 06:17:00,54.0,47.3,29.90,SSW,205,0.0,4.0,78,0.00,,,0.00,meteohub,2013-05-14 13:17:00,
2013-05-14 06:22:00,54.0,47.3,29.90,SSW,205,0.0,4.0,78,0.00,,,0.00,meteohub,2013-05-14 13:22:00,
2013-05-14 06:27:00,54.0,47.3,29.90,SSW,205,0.0,2.0,78,0.00,,,0.00,meteohub,2013-05-14 13:27:00,
2013-05-14 06:32:00,54.1,47.5,29.90,SSW,205,2.0,2.0,78,0.00,,,0.00,meteohub,2013-05-14 13:32:00,
2013-05-14 06:37:00,54.3,47.7,29.90,SSW,205,0.0,2.0,78,0.00,,,0.00,meteohub,2013-05-14 13:37:00,
2013-05-14 06:42:00,54.7,47.7,29.90,SSW,205,0.0,2.0,77,0.00,,,0.00,meteohub,2013-05-14 13:42:00,
2013-05-14 06:47:00,55.2,48.2,29.89,SSW,205,2.0,2.0,77,0.00,,,0.00,meteohub,2013-05-14 13:47:00,
2013-05-14 06:52:00,55.2,48.2,29.89,SSW,205,2.0,3.0,77,0.00,,,0.00,meteohub,2013-05-14 13:52:00,
2013-05-14 06:57:00,55.0,48.4,29.89,NE,36,3.0,5.0,78,0.00,,,0.00,meteohub,2013-05-14 13:57:00,
2013-05-14 07:02:00,55.0,48.4,29.89,NE,50,2.0,5.0,78,0.00,,,0.00,meteohub,2013-05-14 14:02:00,
2013-05-14 07:07:00,55.2,48.7,29.90,NE,50,0.0,5.0,79,0.00,,,0.00,meteohub,2013-05-14 14:07:00,
2013-05-14 07:12:00,55.6,49.1,29.89,NE,50,0.0,5.0,79,0.00,,,0.00,meteohub,2013-05-14 14:12:00,
2013-05-14 07:17:00,55.9,50.2,29.89,NE,50,0.0,3.0,81,0.00,,,0.00,meteohub,2013-05-14 14:17:00,
2013-05-14 07:22:00,56.1,50.0,29.89,NE,50,0.0,1.0,80,0.00,,,0.00,meteohub,2013-05-14 14:22:00,
2013-05-14 07:27:00,56.5,50.0,29.90,NNW,341,3.0,4.0,79,0.00,,,0.00,meteohub,2013-05-14 14:27:00,
2013-05-14 07:32:00,57.4,51.3,29.89,NE,50,1.0,4.0,80,0.00,,,0.00,meteohub,2013-05-14 14:32:00,
2013-05-14 07:37:00,58.6,51.1,29.89,NE,49,1.0,4.0,76,0.00,,,0.00,meteohub,2013-05-14 14:37:00,
2013-05-14 07:42:00,59.4,52.2,29.89,NNE,24,2.0,4.0,77,0.00,,,0.00,meteohub,2013-05-14 14:42:00,
2013-05-14 07:47:00,60.8,53.2,29.89,NE,38,2.0,4.0,76,0.00,,,0.00,meteohub,2013-05-14 14:47:00,
2013-05-14 07:52:00,62.1,52.9,29.90,NE,38,2.0,4.0,72,0.00,,,0.00,meteohub,2013-05-14 14:52:00,
2013-05-14 07:57:00,62.8,52.9,29.89,NNE,32,1.0,4.0,70,0.00,,,0.00,meteohub,2013-05-14 14:57:00,
2013-05-14 08:02:00,63.5,52.7,29.89,NE,36,2.0,4.0,68,0.00,,,0.00,meteohub,2013-05-14 15:02:00,
2013-05-14 08:07:00,64.2,53.4,29.89,NE,53,4.0,5.0,68,0.00,,,0.00,meteohub,2013-05-14 15:07:00,
2013-05-14 08:12:00,64.9,52.9,29.89,NE,55,3.0,5.0,65,0.00,,,0.00,meteohub,2013-05-14 15:12:00,
2013-05-14 08:17:00,65.5,53.1,29.89,NE,50,1.0,5.0,64,0.00,,,0.00,meteohub,2013-05-14 15:17:00,
2013-05-14 08:21:00,65.8,53.2,29.88,NE,43,3.0,5.0,64,0.00,,,0.00,meteohub,2013-05-14 15:21:00,
2013-05-14 08:26:00,66.4,53.8,29.88,NE,46,0.0,4.0,64,0.00,,,0.00,meteohub,2013-05-14 15:26:00,
2013-05-14 08:31:00,66.7,53.8,29.88,NE,47,0.0,4.0,63,0.00,,,0.00,meteohub,2013-05-14 15:31:00,
2013-05-14 08:37:00,66.9,54.3,29.88,WSW,250,2.0,4.0,64,0.00,,,0.00,meteohub,2013-05-14 15:37:00,
2013-05-14 08:42:00,66.9,54.3,29.89,SW,233,1.0,3.0,64,0.00,,,0.00,meteohub,2013-05-14 15:42:00,
2013-05-14 08:47:00,66.4,53.4,29.89,SSW,200,5.0,7.0,63,0.00,,,0.00,meteohub,2013-05-14 15:47:00,
2013-05-14 08:52:00,65.8,52.0,29.89,SSW,200,0.0,7.0,61,0.00,,,0.00,meteohub,2013-05-14 15:52:00,
2013-05-14 08:57:00,64.9,51.6,29.88,SSW,200,1.0,7.0,62,0.00,,,0.00,meteohub,2013-05-14 15:57:00,
2013-05-14 09:02:00,64.8,52.7,29.89,SSW,200,3.0,5.0,65,0.00,,,0.00,meteohub,2013-05-14 16:02:00,
2013-05-14 09:07:00,64.9,53.2,29.89,SSW,200,0.0,5.0,66,0.00,,,0.00,meteohub,2013-05-14 16:07:00,
2013-05-14 09:12:00,65.1,52.7,29.90,WSW,247,3.0,5.0,64,0.00,,,0.00,meteohub,2013-05-14 16:12:00,
2013-05-14 09:17:00,65.5,52.2,29.90,SSW,204,5.0,6.0,62,0.00,,,0.00,meteohub,2013-05-14 16:17:00,
2013-05-14 09:22:00,66.2,52.3,29.90,SSW,211,5.0,6.0,61,0.00,,,0.00,meteohub,2013-05-14 16:22:00,
2013-05-14 09:27:00,66.9,53.4,29.90,SW,215,6.0,7.0,62,0.00,,,0.00,meteohub,2013-05-14 16:27:00,
2013-05-14 09:32:00,67.3,52.9,29.90,SSW,199,3.0,7.0,60,0.00,,,0.00,meteohub,2013-05-14 16:32:00,
2013-05-14 09:37:00,67.3,52.5,29.91,SW,217,3.0,9.0,59,0.00,,,0.00,meteohub,2013-05-14 16:37:00,
2013-05-14 09:42:00,66.7,52.9,29.91,SSW,202,4.0,9.0,61,0.00,,,0.00,meteohub,2013-05-14 16:42:00,
2013-05-14 09:47:00,66.4,52.5,29.90,South,173,5.0,9.0,61,0.00,,,0.00,meteohub,2013-05-14 16:47:00,
2013-05-14 09:52:00,65.8,52.9,29.91,SSW,209,5.0,9.0,63,0.00,,,0.00,meteohub,2013-05-14 16:52:00,
2013-05-14 09:57:00,65.7,52.3,29.91,SSW,206,6.0,9.0,62,0.00,,,0.00,meteohub,2013-05-14 16:57:00,
2013-05-14 10:02:00,65.1,52.7,29.91,SSW,196,5.0,9.0,64,0.00,,,0.00,meteohub,2013-05-14 17:02:00,
2013-05-14 10:06:00,64.9,52.5,29.91,SW,216,3.0,9.0,64,0.00,,,0.00,meteohub,2013-05-14 17:06:00,
2013-05-14 10:11:00,65.1,53.1,29.91,South,186,9.0,9.0,65,0.00,,,0.00,meteohub,2013-05-14 17:11:00,
2013-05-14 10:16:00,64.9,52.9,29.91,SSW,192,3.0,9.0,65,0.00,,,0.00,meteohub,2013-05-14 17:16:00,
2013-05-14 10:21:00,64.9,53.2,29.91,SW,219,3.0,9.0,66,0.00,,,0.00,meteohub,2013-05-14 17:21:00,
2013-05-14 10:27:00,65.1,53.4,29.91,SSW,212,6.0,9.0,66,0.00,,,0.00,meteohub,2013-05-14 17:27:00,
2013-05-14 10:32:00,65.5,53.4,29.91,SSW,207,2.0,9.0,65,0.00,,,0.00,meteohub,2013-05-14 17:32:00,
2013-05-14 10:37:00,65.8,53.8,29.91,SSW,213,5.0,9.0,65,0.00,,,0.00,meteohub,2013-05-14 17:37:00,
2013-05-14 10:42:00,65.8,53.2,29.91,SSE,159,3.0,9.0,64,0.00,,,0.00,meteohub,2013-05-14 17:42:00,
2013-05-14 10:47:00,66.0,53.4,29.91,SSW,207,7.0,9.0,64,0.00,,,0.00,meteohub,2013-05-14 17:47:00,
2013-05-14 10:52:00,66.6,54.0,29.91,SW,222,4.0,9.0,64,0.00,,,0.00,meteohub,2013-05-14 17:52:00,
2013-05-14 10:57:00,67.1,54.5,29.91,SW,215,5.0,7.0,64,0.00,,,0.00,meteohub,2013-05-14 17:57:00,
2013-05-14 11:02:00,67.5,54.0,29.91,SW,220,4.0,8.0,62,0.00,,,0.00,meteohub,2013-05-14 18:02:00,
2013-05-14 11:07:00,67.8,54.3,29.91,SW,229,2.0,8.0,62,0.00,,,0.00,meteohub,2013-05-14 18:07:00,
2013-05-14 11:12:00,68.4,54.3,29.91,SW,219,6.0,8.0,61,0.00,,,0.00,meteohub,2013-05-14 18:12:00,
2013-05-14 11:17:00,68.5,53.6,29.91,SSW,204,6.0,12.0,59,0.00,,,0.00,meteohub,2013-05-14 18:17:00,
2013-05-14 11:22:00,69.4,54.9,29.91,SSW,197,9.0,12.0,60,0.00,,,0.00,meteohub,2013-05-14 18:22:00,
2013-05-14 11:27:00,70.0,54.5,29.92,SW,229,3.0,12.0,58,0.00,,,0.00,meteohub,2013-05-14 18:27:00,
2013-05-14 11:32:00,70.5,53.6,29.92,WSW,239,3.0,11.0,55,0.00,,,0.00,meteohub,2013-05-14 18:32:00,
2013-05-14 11:37:00,71.2,55.8,29.92,SW,229,4.0,11.0,58,0.00,,,0.00,meteohub,2013-05-14 18:37:00,
2013-05-14 11:42:00,71.8,54.7,29.92,WSW,247,6.0,11.0,55,0.00,,,0.00,meteohub,2013-05-14 18:42:00,
2013-05-14 11:47:00,72.1,55.0,29.92,South,175,7.0,8.0,55,0.00,,,0.00,meteohub,2013-05-14 18:47:00,
2013-05-14 11:52:00,72.3,55.2,29.92,SW,232,6.0,9.0,55,0.00,,,0.00,meteohub,2013-05-14 18:52:00,
2013-05-14 11:57:00,72.7,55.6,29.92,SSW,204,7.0,9.0,55,0.00,,,0.00,meteohub,2013-05-14 18:57:00,
2013-05-14 12:02:00,72.9,55.8,29.92,South,188,5.0,9.0,55,0.00,,,0.00,meteohub,2013-05-14 19:02:00,
2013-05-14 12:07:00,72.9,55.2,29.91,SSW,207,7.0,9.0,54,0.00,,,0.00,meteohub,2013-05-14 19:07:00,
2013-05-14 12:12:00,73.0,55.4,29.92,WSW,245,5.0,9.0,54,0.00,,,0.00,meteohub,2013-05-14 19:12:00,
2013-05-14 12:17:00,73.4,56.3,29.92,South,181,6.0,9.0,55,0.00,,,0.00,meteohub,2013-05-14 19:17:00,
2013-05-14 12:22:00,73.8,56.1,29.91,South,185,7.0,9.0,54,0.00,,,0.00,meteohub,2013-05-14 19:22:00,
2013-05-14 12:27:00,73.8,56.7,29.91,SW,219,6.0,10.0,55,0.00,,,0.00,meteohub,2013-05-14 19:27:00,
2013-05-14 12:32:00,73.8,56.1,29.91,South,182,8.0,10.0,54,0.00,,,0.00,meteohub,2013-05-14 19:32:00,
2013-05-14 12:37:00,73.9,55.8,29.91,SW,235,4.0,10.0,53,0.00,,,0.00,meteohub,2013-05-14 19:37:00,
2013-05-14 12:42:00,74.1,55.9,29.91,SSW,202,4.0,9.0,53,0.00,,,0.00,meteohub,2013-05-14 19:42:00,
2013-05-14 12:47:00,74.5,56.3,29.91,SSW,192,6.0,10.0,53,0.00,,,0.00,meteohub,2013-05-14 19:47:00,
2013-05-14 12:52:00,74.5,56.3,29.91,SSW,213,3.0,12.0,53,0.00,,,0.00,meteohub,2013-05-14 19:52:00,
2013-05-14 12:57:00,75.0,56.7,29.91,SW,229,5.0,12.0,53,0.00,,,0.00,meteohub,2013-05-14 19:57:00,
2013-05-14 13:02:00,75.6,55.6,29.91,WSW,246,6.0,12.0,50,0.00,,,0.00,meteohub,2013-05-14 20:02:00,
2013-05-14 13:07:00,75.7,56.8,29.91,South,186,6.0,12.0,52,0.00,,,0.00,meteohub,2013-05-14 20:07:00,
2013-05-14 13:12:00,75.9,56.5,29.91,South,169,5.0,12.0,51,0.00,,,0.00,meteohub,2013-05-14 20:12:00,
2013-05-14 13:17:00,76.5,57.0,29.91,SSW,200,6.0,12.0,51,0.00,,,0.00,meteohub,2013-05-14 20:17:00,
2013-05-14 13:22:00,76.8,57.4,29.91,SW,232,3.0,11.0,51,0.00,,,0.00,meteohub,2013-05-14 20:22:00,
2013-05-14 13:27:00,77.0,57.0,29.90,South,182,4.0,11.0,50,0.00,,,0.00,meteohub,2013-05-14 20:27:00,
2013-05-14 13:32:00,77.0,56.3,29.90,SW,222,5.0,11.0,49,0.00,,,0.00,meteohub,2013-05-14 20:32:00,
2013-05-14 13:37:00,77.2,57.0,29.90,South,182,8.0,11.0,50,0.00,,,0.00,meteohub,2013-05-14 20:37:00,
2013-05-14 13:42:00,77.0,57.0,29.90,South,178,3.0,12.0,50,0.00,,,0.00,meteohub,2013-05-14 20:42:00,
2013-05-14 13:47:00,77.5,56.8,29.90,South,174,6.0,12.0,49,0.00,,,0.00,meteohub,2013-05-14 20:47:00,
2013-05-14 13:52:00,77.5,56.8,29.90,South,171,5.0,12.0,49,0.00,,,0.00,meteohub,2013-05-14 20:52:00,
2013-05-14 13:56:00,77.5,56.8,29.90,SW,228,6.0,11.0,49,0.00,,,0.00,meteohub,2013-05-14 20:56:00,
2013-05-14 14:02:00,77.7,57.0,29.90,South,171,4.0,10.0,49,0.00,,,0.00,meteohub,2013-05-14 21:02:00,
2013-05-14 14:07:00,77.7,57.0,29.90,South,178,5.0,10.0,49,0.00,,,0.00,meteohub,2013-05-14 21:07:00,
2013-05-14 14:11:00,77.7,56.5,29.90,South,182,7.0,11.0,48,0.00,,,0.00,meteohub,2013-05-14 21:11:00,
2013-05-14 14:17:00,78.1,56.8,29.90,SW,217,6.0,11.0,48,0.00,,,0.00,meteohub,2013-05-14 21:17:00,
2013-05-14 14:22:00,78.4,57.2,29.90,SW,224,2.0,11.0,48,0.00,,,0.00,meteohub,2013-05-14 21:22:00,
2013-05-14 14:27:00,78.4,56.5,29.90,SSW,200,5.0,11.0,47,0.00,,,0.00,meteohub,2013-05-14 21:27:00,
2013-05-14 14:32:00,78.3,57.0,29.89,South,174,5.0,11.0,48,0.00,,,0.00,meteohub,2013-05-14 21:32:00,
2013-05-14 14:37:00,78.3,57.0,29.89,SSE,160,9.0,11.0,48,0.00,,,0.00,meteohub,2013-05-14 21:37:00,
2013-05-14 14:42:00,78.1,56.3,29.89,SW,220,6.0,11.0,47,0.00,,,0.00,meteohub,2013-05-14 21:42:00,
2013-05-14 14:47:00,78.4,56.5,29.89,SSE,160,7.0,10.0,47,0.00,,,0.00,meteohub,2013-05-14 21:47:00,
2013-05-14 14:52:00,78.1,56.3,29.89,South,175,5.0,12.0,47,0.00,,,0.00,meteohub,2013-05-14 21:52:00,
2013-05-14 14:57:00,78.1,56.3,29.89,South,178,5.0,12.0,47,0.00,,,0.00,meteohub,2013-05-14 21:57:00,
2013-05-14 15:02:00,78.3,56.3,29.89,SSW,192,9.0,12.0,47,0.00,,,0.00,meteohub,2013-05-14 22:02:00,
2013-05-14 15:07:00,78.3,56.3,29.88,SSW,192,8.0,12.0,47,0.00,,,0.00,meteohub,2013-05-14 22:07:00,
2013-05-14 15:12:00,77.9,56.1,29.89,SSE,162,9.0,12.0,47,0.00,,,0.00,meteohub,2013-05-14 22:12:00,
2013-05-14 15:17:00,77.9,56.1,29.89,SSW,207,6.0,12.0,47,0.00,,,0.00,meteohub,2013-05-14 22:17:00,
2013-05-14 15:22:00,78.3,56.3,29.88,South,186,5.0,12.0,47,0.00,,,0.00,meteohub,2013-05-14 22:22:00,
2013-05-14 15:27:00,78.3,55.8,29.88,South,170,4.0,11.0,46,0.00,,,0.00,meteohub,2013-05-14 22:27:00,
2013-05-14 15:32:00,78.4,55.9,29.88,South,183,3.0,11.0,46,0.00,,,0.00,meteohub,2013-05-14 22:32:00,
2013-05-14 15:37:00,78.6,56.1,29.88,SSW,200,5.0,11.0,46,0.00,,,0.00,meteohub,2013-05-14 22:37:00,
2013-05-14 15:42:00,78.4,55.9,29.88,SSW,199,8.0,10.0,46,0.00,,,0.00,meteohub,2013-05-14 22:42:00,
2013-05-14 15:47:00,78.4,55.9,29.88,SSW,207,6.0,10.0,46,0.00,,,0.00,meteohub,2013-05-14 22:47:00,
2013-05-14 15:52:00,77.9,55.4,29.88,South,184,9.0,10.0,46,0.00,,,0.00,meteohub,2013-05-14 22:52:00,
2013-05-14 15:57:00,77.9,55.4,29.88,WSW,238,5.0,10.0,46,0.00,,,0.00,meteohub,2013-05-14 22:57:00,
2013-05-14 16:02:00,77.9,56.1,29.88,SSW,204,3.0,10.0,47,0.00,,,0.00,meteohub,2013-05-14 23:02:00,
2013-05-14 16:07:00,77.7,54.7,29.88,SSW,204,6.0,10.0,45,0.00,,,0.00,meteohub,2013-05-14 23:07:00,
2013-05-14 16:12:00,77.7,54.7,29.88,South,186,8.0,10.0,45,0.00,,,0.00,meteohub,2013-05-14 23:12:00,
2013-05-14 16:17:00,77.5,55.0,29.88,SE,142,8.0,10.0,46,0.00,,,0.00,meteohub,2013-05-14 23:17:00,
2013-05-14 16:22:00,77.2,55.4,29.88,SW,217,6.0,10.0,47,0.00,,,0.00,meteohub,2013-05-14 23:22:00,
2013-05-14 16:26:00,77.4,55.0,29.88,WSW,244,6.0,10.0,46,0.00,,,0.00,meteohub,2013-05-14 23:26:00,
2013-05-14 16:31:00,77.5,53.2,29.88,SSW,193,8.0,10.0,43,0.00,,,0.00,meteohub,2013-05-14 23:31:00,
2013-05-14 16:36:00,78.1,55.0,29.88,South,186,5.0,10.0,45,0.00,,,0.00,meteohub,2013-05-14 23:36:00,
2013-05-14 16:41:00,78.6,55.6,29.88,SSW,213,4.0,10.0,45,0.00,,,0.00,meteohub,2013-05-14 23:41:00,
2013-05-14 16:46:00,78.8,55.0,29.88,SW,219,4.0,10.0,44,0.00,,,0.00,meteohub,2013-05-14 23:46:00,
2013-05-14 16:51:00,79.0,55.8,29.88,SSW,213,7.0,8.0,45,0.00,,,0.00,meteohub,2013-05-14 23:51:00,
2013-05-14 16:56:00,78.8,55.0,29.88,SSE,168,6.0,8.0,44,0.00,,,0.00,meteohub,2013-05-14 23:56:00,
2013-05-14 17:01:00,78.3,55.2,29.88,SSW,200,5.0,10.0,45,0.00,,,0.00,meteohub,2013-05-15 00:01:00,
2013-05-14 17:06:00,77.9,55.4,29.88,SW,220,3.0,10.0,46,0.00,,,0.00,meteohub,2013-05-15 00:06:00,
2013-05-14 17:11:00,77.5,55.8,29.88,SSW,194,5.0,10.0,47,0.00,,,0.00,meteohub,2013-05-15 00:11:00,
2013-05-14 17:16:00,77.2,55.4,29.88,SSW,196,7.0,9.0,47,0.00,,,0.00,meteohub,2013-05-15 00:16:00,
2013-05-14 17:21:00,76.6,54.9,29.88,SSW,192,6.0,9.0,47,0.00,,,0.00,meteohub,2013-05-15 00:21:00,
2013-05-14 17:26:00,76.6,55.4,29.88,SSW,194,7.0,9.0,48,0.00,,,0.00,meteohub,2013-05-15 00:26:00,
2013-05-14 17:31:00,76.5,55.4,29.88,South,191,8.0,10.0,48,0.00,,,0.00,meteohub,2013-05-15 00:31:00,
2013-05-14 17:36:00,75.9,54.9,29.88,SSW,197,7.0,10.0,48,0.00,,,0.00,meteohub,2013-05-15 00:36:00,
2013-05-14 17:41:00,75.4,54.9,29.88,SSW,202,7.0,10.0,49,0.00,,,0.00,meteohub,2013-05-15 00:41:00,
2013-05-14 17:46:00,75.0,54.5,29.88,SSE,157,6.0,9.0,49,0.00,,,0.00,meteohub,2013-05-15 00:46:00,
2013-05-14 17:51:00,74.7,54.9,29.88,South,169,6.0,9.0,50,0.00,,,0.00,meteohub,2013-05-15 00:51:00,
2013-05-14 17:56:00,73.9,54.1,29.88,SSW,207,7.0,11.0,50,0.00,,,0.00,meteohub,2013-05-15 00:56:00,
2013-05-14 18:01:00,73.6,54.3,29.88,South,184,7.0,11.0,51,0.00,,,0.00,meteohub,2013-05-15 01:01:00,
2013-05-14 18:06:00,73.2,54.5,29.88,SSW,200,3.0,11.0,52,0.00,,,0.00,meteohub,2013-05-15 01:06:00,
2013-05-14 18:11:00,73.0,54.3,29.88,SSW,207,5.0,10.0,52,0.00,,,0.00,meteohub,2013-05-15 01:11:00,
2013-05-14 18:16:00,72.7,54.0,29.88,SSW,207,7.0,9.0,52,0.00,,,0.00,meteohub,2013-05-15 01:16:00,
2013-05-14 18:21:00,72.3,54.1,29.88,South,175,6.0,10.0,53,0.00,,,0.00,meteohub,2013-05-15 01:21:00,
2013-05-14 18:27:00,72.0,54.3,29.88,South,188,7.0,10.0,54,0.00,,,0.00,meteohub,2013-05-15 01:27:00,
2013-05-14 18:32:00,71.8,54.3,29.88,SSW,196,8.0,10.0,54,0.00,,,0.00,meteohub,2013-05-15 01:32:00,
2013-05-14 18:37:00,71.1,54.1,29.88,SSW,193,6.0,10.0,55,0.00,,,0.00,meteohub,2013-05-15 01:37:00,
2013-05-14 18:42:00,70.7,53.8,29.88,SSW,193,4.0,10.0,55,0.00,,,0.00,meteohub,2013-05-15 01:42:00,
2013-05-14 18:47:00,70.3,53.4,29.88,South,188,6.0,10.0,55,0.00,,,0.00,meteohub,2013-05-15 01:47:00,
2013-05-14 18:52:00,70.2,53.8,29.88,SSW,196,7.0,9.0,56,0.00,,,0.00,meteohub,2013-05-15 01:52:00,
2013-05-14 18:57:00,69.6,53.8,29.88,South,178,8.0,9.0,57,0.00,,,0.00,meteohub,2013-05-15 01:57:00,
2013-05-14 19:02:00,69.1,53.6,29.88,SSW,194,6.0,9.0,58,0.00,,,0.00,meteohub,2013-05-15 02:02:00,
2013-05-14 19:07:00,68.7,53.4,29.88,South,185,8.0,9.0,58,0.00,,,0.00,meteohub,2013-05-15 02:07:00,
2013-05-14 19:12:00,68.2,53.2,29.88,SSW,204,4.0,9.0,59,0.00,,,0.00,meteohub,2013-05-15 02:12:00,
2013-05-14 19:17:00,67.8,52.9,29.88,South,182,8.0,9.0,59,0.00,,,0.00,meteohub,2013-05-15 02:17:00,
2013-05-14 19:22:00,67.5,53.1,29.88,SSW,200,5.0,8.0,60,0.00,,,0.00,meteohub,2013-05-15 02:22:00,
2013-05-14 19:27:00,67.1,52.7,29.88,SSW,211,5.0,8.0,60,0.00,,,0.00,meteohub,2013-05-15 02:27:00,
2013-05-14 19:32:00,66.6,52.7,29.88,South,190,5.0,9.0,61,0.00,,,0.00,meteohub,2013-05-15 02:32:00,
2013-05-14 19:37:00,65.8,52.5,29.88,South,186,7.0,9.0,62,0.00,,,0.00,meteohub,2013-05-15 02:37:00,
2013-05-14 19:42:00,65.1,52.2,29.89,SSW,195,5.0,11.0,63,0.00,,,0.00,meteohub,2013-05-15 02:42:00,
2013-05-14 19:47:00,64.9,52.5,29.89,SSW,209,6.0,11.0,64,0.00,,,0.00,meteohub,2013-05-15 02:47:00,
2013-05-14 19:52:00,64.6,52.2,29.89,SSE,166,5.0,11.0,64,0.00,,,0.00,meteohub,2013-05-15 02:52:00,
2013-05-14 19:57:00,64.0,51.6,29.89,SSW,205,6.0,9.0,64,0.00,,,0.00,meteohub,2013-05-15 02:57:00,
2013-05-14 20:02:00,63.7,51.6,29.89,SSW,207,5.0,9.0,65,0.00,,,0.00,meteohub,2013-05-15 03:02:00,
2013-05-14 20:07:00,63.3,51.4,29.89,South,191,3.0,9.0,65,0.00,,,0.00,meteohub,2013-05-15 03:07:00,
2013-05-14 20:12:00,62.8,51.3,29.90,South,188,4.0,7.0,66,0.00,,,0.00,meteohub,2013-05-15 03:12:00,
2013-05-14 20:17:00,62.2,50.7,29.90,SSW,193,4.0,7.0,66,0.00,,,0.00,meteohub,2013-05-15 03:17:00,
2013-05-14 20:22:00,62.1,51.4,29.90,South,186,4.0,7.0,68,0.00,,,0.00,meteohub,2013-05-15 03:22:00,
2013-05-14 20:27:00,61.7,51.1,29.90,SSW,195,4.0,7.0,68,0.00,,,0.00,meteohub,2013-05-15 03:27:00,
2013-05-14 20:32:00,61.0,51.1,29.90,South,188,3.0,7.0,70,0.00,,,0.00,meteohub,2013-05-15 03:32:00,
2013-05-14 20:37:00,60.3,50.9,29.90,SSW,198,5.0,7.0,71,0.00,,,0.00,meteohub,2013-05-15 03:37:00,
2013-05-14 20:41:00,59.5,50.2,29.91,South,175,4.0,8.0,71,0.00,,,0.00,meteohub,2013-05-15 03:41:00,
2013-05-14 20:46:00,59.2,50.2,29.91,South,180,4.0,8.0,72,0.00,,,0.00,meteohub,2013-05-15 03:46:00,
2013-05-14 20:51:00,58.6,50.0,29.91,South,175,4.0,8.0,73,0.00,,,0.00,meteohub,2013-05-15 03:51:00,
2013-05-14 20:57:00,58.3,50.0,29.91,SSE,165,6.0,8.0,74,0.00,,,0.00,meteohub,2013-05-15 03:57:00,
2013-05-14 21:01:00,57.9,49.6,29.91,South,169,5.0,8.0,74,0.00,,,0.00,meteohub,2013-05-15 04:01:00,
2013-05-14 21:06:00,57.6,49.6,29.91,South,173,7.0,9.0,75,0.00,,,0.00,meteohub,2013-05-15 04:06:00,
2013-05-14 21:11:00,57.6,49.6,29.92,SSE,165,6.0,9.0,75,0.00,,,0.00,meteohub,2013-05-15 04:11:00,
2013-05-14 21:16:00,57.6,49.3,29.92,South,171,5.0,9.0,74,0.00,,,0.00,meteohub,2013-05-15 04:16:00,
2013-05-14 21:21:00,57.6,49.3,29.92,South,186,5.0,9.0,74,0.00,,,0.00,meteohub,2013-05-15 04:21:00,
2013-05-14 21:26:00,57.6,49.3,29.92,South,180,5.0,8.0,74,0.00,,,0.00,meteohub,2013-05-15 04:26:00,
2013-05-14 21:31:00,57.9,49.3,29.92,SSW,210,3.0,8.0,73,0.00,,,0.00,meteohub,2013-05-15 04:31:00,
2013-05-14 21:36:00,58.3,49.3,29.92,SW,224,3.0,7.0,72,0.00,,,0.00,meteohub,2013-05-15 04:36:00,
2013-05-14 21:41:00,58.5,49.5,29.92,SW,217,2.0,6.0,72,0.00,,,0.00,meteohub,2013-05-15 04:41:00,
2013-05-14 21:46:00,58.6,49.3,29.92,WSW,238,3.0,6.0,71,0.00,,,0.00,meteohub,2013-05-15 04:46:00,
2013-05-14 21:51:00,59.0,49.6,29.92,SW,235,3.0,7.0,71,0.00,,,0.00,meteohub,2013-05-15 04:51:00,
2013-05-14 21:56:00,59.2,49.5,29.92,SW,232,4.0,7.0,70,0.00,,,0.00,meteohub,2013-05-15 04:56:00,
2013-05-14 22:01:00,59.4,49.1,29.92,SSW,211,5.0,7.0,69,0.00,,,0.00,meteohub,2013-05-15 05:01:00,
2013-05-14 22:06:00,59.4,48.7,29.93,SSW,207,6.0,7.0,68,0.00,,,0.00,meteohub,2013-05-15 05:06:00,
2013-05-14 22:11:00,59.4,48.7,29.93,SW,227,3.0,8.0,68,0.00,,,0.00,meteohub,2013-05-15 05:11:00,
2013-05-14 22:16:00,59.4,48.7,29.93,South,188,4.0,8.0,68,0.00,,,0.00,meteohub,2013-05-15 05:16:00,
2013-05-14 22:21:00,59.2,49.1,29.93,SW,232,3.0,8.0,69,0.00,,,0.00,meteohub,2013-05-15 05:21:00,
2013-05-14 22:26:00,59.0,48.9,29.93,SW,225,5.0,7.0,69,0.00,,,0.00,meteohub,2013-05-15 05:26:00,
2013-05-14 22:31:00,58.6,47.7,29.93,SW,229,2.0,7.0,67,0.00,,,0.00,meteohub,2013-05-15 05:31:00,
2013-05-14 22:36:00,58.6,47.3,29.93,SW,224,2.0,9.0,66,0.00,,,0.00,meteohub,2013-05-15 05:36:00,
2013-05-14 22:41:00,58.5,46.4,29.94,South,187,5.0,11.0,64,0.00,,,0.00,meteohub,2013-05-15 05:41:00,
2013-05-14 22:46:00,58.3,46.2,29.93,SW,233,6.0,11.0,64,0.00,,,0.00,meteohub,2013-05-15 05:46:00,
2013-05-14 22:51:00,58.3,45.7,29.93,SW,234,4.0,11.0,63,0.00,,,0.00,meteohub,2013-05-15 05:51:00,
2013-05-14 22:57:00,57.9,45.9,29.93,SSW,212,4.0,11.0,64,0.00,,,0.00,meteohub,2013-05-15 05:57:00,
2013-05-14 23:02:00,57.7,46.0,29.93,SW,221,4.0,11.0,65,0.00,,,0.00,meteohub,2013-05-15 06:02:00,
2013-05-14 23:07:00,57.6,45.5,29.93,WSW,246,4.0,9.0,64,0.00,,,0.00,meteohub,2013-05-15 06:07:00,
2013-05-14 23:12:00,57.2,44.8,29.93,WNW,290,5.0,10.0,63,0.00,,,0.00,meteohub,2013-05-15 06:12:00,
2013-05-14 23:17:00,57.0,45.0,29.93,SSW,199,2.0,13.0,64,0.00,,,0.00,meteohub,2013-05-15 06:17:00,
2013-05-14 23:22:00,56.8,44.4,29.93,WSW,237,2.0,13.0,63,0.00,,,0.00,meteohub,2013-05-15 06:22:00,
2013-05-14 23:27:00,56.7,44.2,29.93,WSW,239,2.0,13.0,63,0.00,,,0.00,meteohub,2013-05-15 06:27:00,
2013-05-14 23:32:00,56.5,44.1,29.93,West,262,6.0,8.0,63,0.00,,,0.00,meteohub,2013-05-15 06:32:00,
2013-05-14 23:37:00,56.1,43.7,29.93,SW,233,7.0,10.0,63,0.00,,,0.00,meteohub,2013-05-15 06:37:00,
2013-05-14 23:42:00,55.9,43.5,29.93,WSW,249,4.0,10.0,63,0.00,,,0.00,meteohub,2013-05-15 06:42:00,
2013-05-14 23:47:00,55.9,43.5,29.93,SW,235,4.0,10.0,63,0.00,,,0.00,meteohub,2013-05-15 06:47:00,
2013-05-14 23:52:00,55.8,43.0,29.93,SSW,205,4.0,8.0,62,0.00,,,0.00,meteohub,2013-05-15 06:52:00,
2013-05-14 23:57:00,55.6,43.2,29.94,SW,225,4.0,7.0,63,0.00,,,0.00,meteohub,2013-05-15 06:57:00,